Location: 81360 Arifat, France
(43.7204°N, 2.3408°E)
Time: 20:55:44
(UTC+01:00)

BlueWalker 3 - Pass Details

Date: 06 December 2023
Orbit: 485 x 500 km, 53.2° (Epoch: 29 February)

Event Time Altitude Azimuth Distance (km) Brightness Sun altitude
Exits shadow 05:21:27 20° 131° (SE) 1,205 4.3 -29.5°
Drops below altitude 10° 05:22:40 10° 130° (SE) 1,685 5.2 -29.3°
Enters shadow 06:21:42 -63° 322° (NW) 11,950 8.9 -18.8°
